Location: Alphen
(52.1351°N, 4.6549°E)
Time: 02:01:52
(UTC+00:00)

Cosmos 1656 Rocket - Pass Details

Date: 27 January 2021
Orbit: 797 x 845 km, 71.1° (Epoch: 27 February)

Event Time Altitude Azimuth Distance (km) Brightness Sun altitude
Exits shadow 05:25:51 10° 336° (NNW) 2,370 5.7 -18.7°
Maximum altitude 05:31:06 51° 52° (NE) 1,005 4.3 -17.9°
Drops below altitude 10° 05:36:22 10° 128° (SE) 2,369 6.9 -17.1°
Sets 05:38:50 0° 134° (SE) 3,294 7.7 -16.7°
